#timestamp,LO_Frequency,Hit,StdDev 
1639602015.9,286047002.0,N
1639602035.7,286047001.6,N
1639602055.5,286047001.4,N
1639602075.4,286047002.8,N
1639602095.2,286047000.6,N
1639602115.1,286047002.3,N
1639602116.0,286047002.3,N
1639602135.8,286047002.5,N
1639602155.6,286047004.2,N
1639602175.5,286047004.4,N
1639602195.3,286047004.4,N
1639602215.1,286047004.7,N
1639602235.9,286047005.1,Y
1639602255.7,286047001.8,P
1639602275.6,286047000.2,N
1639602295.4,286047002.8,N
1639602315.2,286047002.7,N
1639602335.1,286046999.9,N
1639602336.0,286046999.9,N
1639602355.8,286047000.0,N
1639602375.7,286047001.4,N
1639602395.5,286047004.0,Y
1639602415.3,286047002.6,P
1639602435.2,286047000.7,N
1639602455.0,286047001.2,N
1639602455.9,286047001.2,N
1639602475.8,286047001.0,N
1639602495.6,286047000.3,N
1639602515.4,286047001.1,N
1639602535.3,286046998.6,N
1639602555.1,286046997.7,N
1639602575.8,286046997.0,N
1639602595.7,286046999.4,N
1639602615.5,286046998.2,N
1639602635.4,286046998.9,N
1639602655.2,286046998.6,N
1639602675.0,286047002.3,N
1639602675.9,286047002.3,N
1639602695.8,286046998.9,N
1639602715.6,286046998.5,N
1639602735.5,286046999.3,N
1639602755.3,286046996.5,N
1639602775.1,286047011.9,Y
1639602795.9,286046996.5,P
1639602815.7,286046997.5,N
1639602835.6,286046999.0,N
1639602855.4,286046999.4,N
1639602875.2,286046998.7,N
1639602895.1,286046999.0,N
1639602896.0,286046999.0,N
1639602915.8,286047000.5,N
1639602935.6,286046998.2,N
1639602955.5,286046998.8,N
1639602975.3,286046998.6,N
1639602995.2,286046999.4,N
1639603015.9,286046996.8,Y
1639603035.7,286047001.2,P
1639603055.6,286047000.2,N
1639603075.4,286047001.8,N
1639603095.2,286047003.4,N
1639603115.1,286047003.8,N
1639603116.0,286047003.8,N
1639603135.8,286047004.2,N
1639603155.7,286047001.8,N
1639603175.5,286047002.4,N
1639603195.3,286047000.2,N
1639603215.2,286047001.0,N
1639603235.0,286046998.6,N
1639603235.9,286046998.6,N
1639603255.7,286047000.6,N
1639603275.6,286047000.8,N
1639603295.4,286047000.8,N
1639603315.3,286047002.7,N
1639603335.1,286047000.8,N
1639603336.0,286047000.8,N
1639603355.8,286047000.1,N
1639603375.7,286047000.4,N
1639603395.5,286047000.6,N
1639603415.3,286046999.6,N
1639603435.2,286046996.8,N
1639603455.0,286046997.0,N
1639603455.9,286046997.0,N
1639603475.8,286047001.2,N
1639603495.6,286047000.9,N
1639603515.4,286047000.0,N
1639603535.3,286047000.4,N
1639603555.1,286047001.4,N
1639603575.9,286047002.2,N
1639603595.7,286047002.1,N
1639603615.5,286047004.2,N
1639603635.4,286047002.2,N
1639603655.2,286047001.5,N
1639603675.0,286047001.3,N
1639603675.9,286047001.3,N
1639603695.8,286047005.3,Y
1639603715.6,286047004.3,P
1639603735.5,286047003.8,N
1639603755.3,286047004.2,N
1639603775.1,286047004.4,N
1639603795.9,286047005.9,Y
1639603815.7,286047000.2,P
1639603835.5,286047000.3,N
1639603855.4,286046998.5,N
1639603875.2,286046996.7,N
1639603895.1,286046995.4,N
1639603896.0,286046995.4,N
1639603915.8,286046997.4,N
1639603935.6,286046996.9,N
1639603955.5,286046998.1,N
1639603975.3,286046999.4,N
1639603995.1,286046996.7,N
1639604015.9,286046996.9,N
1639604035.7,286046999.0,N
1639604055.6,286046997.9,N
1639604075.4,286046997.8,N
1639604095.2,286046997.8,N
1639604115.1,286046999.4,N
1639604116.0,286046999.4,N
1639604135.8,286046998.8,N
1639604155.7,286046997.6,N
1639604175.5,286046996.7,N
1639604195.3,286046997.4,N
1639604215.2,286046999.0,N
1639604235.0,286046999.3,N
1639604235.9,286046999.3,N
1639604255.7,286046999.0,N
1639604275.6,286046998.6,N
1639604295.4,286046998.5,N
1639604315.3,286046998.8,N
1639604335.1,286046998.3,N
1639604336.0,286046998.3,N
1639604355.8,286047001.2,N
1639604375.7,286046998.8,N
1639604395.5,286046998.9,N
1639604415.3,286046998.1,N
1639604435.2,286046998.5,N
1639604455.0,286046998.5,N
1639604455.9,286046998.5,N
1639604475.8,286047000.4,N
1639604495.6,286047001.9,N
1639604515.4,286047001.6,N
1639604535.3,286046999.7,N
1639604555.1,286046999.8,N
1639604575.9,286047000.6,N
1639604595.7,286046998.7,N
1639604615.5,286046998.8,N
1639604635.4,286046998.6,N
1639604655.2,286047001.0,N
1639604675.0,286047002.6,N
1639604675.9,286047002.6,N
1639604695.8,286046998.4,N
1639604715.6,286046998.5,N
1639604735.5,286046998.2,N
1639604755.3,286047000.7,N
1639604775.1,286046998.3,N
1639604795.9,286046998.5,N
1639604815.7,286046998.1,N
1639604835.5,286046998.2,N
1639604855.4,286047001.1,N
1639604875.2,286047001.1,N
1639604895.1,286046998.1,N
1639604896.0,286046998.1,N
1639604915.8,286046998.5,N
1639604935.6,286047000.0,N
1639604955.5,286047000.9,N
1639604975.3,286046998.6,N
1639604995.2,286046998.6,N
1639605015.0,286046996.8,N
1639605015.9,286046996.8,N
1639605035.7,286046993.7,Y
1639605055.6,286046995.1,P
1639605075.4,286046997.1,N
1639605095.3,286046997.7,N
1639605115.1,286046997.4,N
1639605116.0,286046997.4,N
1639605135.8,286046999.2,N
1639605155.7,286046996.9,N
1639605175.5,286046995.1,Y
1639605195.4,286047000.9,P
1639605215.2,286047002.8,N
1639605235.0,286046999.9,N
1639605235.9,286046999.9,N
1639605255.8,286047001.3,N
1639605275.6,286047003.8,N
1639605295.4,286047005.9,Y
1639605315.3,286047005.6,P
1639605335.1,286047002.9,N
1639605355.9,286047003.1,N
1639605375.7,286047002.5,N
1639605395.5,286046999.7,N
1639605415.4,286047001.6,N
1639605435.2,286047004.3,N
1639605455.0,286047002.1,N
1639605456.0,286047002.1,N
1639605475.8,286047004.2,N
1639605495.6,286047004.0,N
1639605515.5,286047002.2,N
1639605535.3,286047000.9,N
1639605555.1,286047000.9,N
1639605575.9,286047002.7,N
1639605595.7,286047002.7,N
